User: anonymous   Login
Location: Waning Moon II Observatory
(30.3730°N, 89.7620°W)
Time: 06:34:16
(UTC-05:00)
Language:

Cosmos 1825 Rocket - Orbit

View from above orbital plane
View from above orbital plane
View from above satellite
View from above satellite

Ground track
Ground track

The orbit data is extracted from the following two-line orbital elements,

1 17567U 87024B   15115.38833677  .00000668  00000-0  78223-4 0  9991
2 17567 082.5316 212.4873 0020479 054.4418 305.8702 14.83410485520255
Epoch (UTC): 25 April 2015 09:19:12
Eccentricity: 0.0020479
inclination: 82.5316°
perigee height: 604 km
apogee height: 633 km
right ascension of ascending node: 212.4873°
argument of perigee: 54.4418°
revolutions per day: 14.83410485
mean anomaly at epoch: 305.8702°
orbit number at epoch: 52025

The dashed part of the orbit path shows where the satellite is in the earth's shadow,  

DLR